AAY963 KISP-KAVL

Flight info

Callsign AAY963
Flight time 1h 58m
Altitude 36000
Route BEADS T320 SARDI RBV Q430 BYRDD J48 MOL FLASK SUG
Aircraft A320/M-SDE3FGHIRWY/LB1

Departure

Time 2026-04-28 12:19
Airport Long Island MacArthur Airport (KISP)

Arrival

Time 2026-04-28 14:17
Airport Asheville Regional Airport (KAVL)
Time Latitude Longitude Altitude Speed Heading
2026-04-28 11:41 40.79040 -73.09858 95 ft 0 kts 180°
2026-04-28 12:03 40.79046 -73.09858 97 ft 4 kts 179°
2026-04-28 12:04 40.79073 -73.09862 96 ft 4 kts 163°
2026-04-28 12:04 40.79097 -73.09876 95 ft 4 kts 140°
2026-04-28 12:04 40.79112 -73.09902 95 ft 4 kts 95°
2026-04-28 12:04 40.79112 -73.09909 95 ft 0 kts 90°
2026-04-28 12:14 40.79113 -73.09852 98 ft 13 kts 89°
2026-04-28 12:14 40.79113 -73.09725 95 ft 13 kts 90°
2026-04-28 12:14 40.79112 -73.09608 95 ft 12 kts 89°
2026-04-28 12:14 40.79149 -73.09517 95 ft 11 kts 45°
2026-04-28 12:15 40.79203 -73.09453 95 ft 10 kts 26°
2026-04-28 12:15 40.79266 -73.09467 96 ft 10 kts 344°
2026-04-28 12:15 40.79348 -73.09469 96 ft 14 kts
2026-04-28 12:15 40.79459 -73.09471 95 ft 18 kts
2026-04-28 12:16 40.79585 -73.09470 96 ft 18 kts
2026-04-28 12:16 40.79709 -73.09471 95 ft 18 kts 359°
2026-04-28 12:16 40.79836 -73.09471 95 ft 18 kts
2026-04-28 12:16 40.79962 -73.09471 95 ft 19 kts
2026-04-28 12:17 40.80072 -73.09449 98 ft 14 kts 36°
2026-04-28 12:17 40.80140 -73.09390 99 ft 8 kts
2026-04-28 12:17 40.80174 -73.09416 97 ft 3 kts 314°
2026-04-28 12:17 40.80196 -73.09445 98 ft 8 kts 314°
2026-04-28 12:18 40.80192 -73.09498 99 ft 5 kts 233°
2026-04-28 12:18 40.80161 -73.09540 101 ft 14 kts 225°
2026-04-28 12:18 40.79905 -73.09875 99 ft 91 kts 225°
2026-04-28 12:18 40.79298 -73.10675 102 ft 153 kts 225°
2026-04-28 12:19 40.78482 -73.11737 601 ft 169 kts 224°
2026-04-28 12:19 40.77595 -73.12813 1209 ft 181 kts 222°
2026-04-28 12:19 40.76630 -73.14006 1623 ft 198 kts 224°
2026-04-28 12:19 40.75502 -73.15195 2039 ft 220 kts 205°
2026-04-28 12:20 40.73938 -73.15529 2523 ft 240 kts 170°
2026-04-28 12:20 40.72371 -73.14671 3102 ft 253 kts 139°
2026-04-28 12:20 40.71270 -73.12861 3573 ft 255 kts 111°
2026-04-28 12:20 40.70875 -73.10607 4025 ft 253 kts 91°
2026-04-28 12:21 40.70900 -73.08296 4634 ft 253 kts 84°
2026-04-28 12:21 40.71123 -73.05996 5219 ft 254 kts 79°
2026-04-28 12:21 40.71374 -73.03684 5830 ft 256 kts 81°
2026-04-28 12:21 40.71583 -73.01353 6413 ft 258 kts 82°
2026-04-28 12:22 40.71762 -72.98995 6932 ft 259 kts 83°
2026-04-28 12:22 40.71908 -72.96617 7495 ft 261 kts 84°
2026-04-28 12:22 40.72023 -72.94204 8126 ft 266 kts 85°
2026-04-28 12:22 40.72106 -72.91755 8750 ft 269 kts 86°
2026-04-28 12:23 40.72156 -72.89274 9431 ft 273 kts 87°
2026-04-28 12:23 40.72173 -72.86754 9998 ft 277 kts 87°
2026-04-28 12:23 40.71986 -72.84154 10376 ft 303 kts 109°
2026-04-28 12:23 40.70772 -72.81731 10659 ft 332 kts 130°
2026-04-28 12:24 40.68892 -72.79735 11086 ft 355 kts 147°
2026-04-28 12:24 40.66568 -72.78454 11517 ft 370 kts 163°
2026-04-28 12:24 40.63994 -72.77954 11564 ft 377 kts 178°
2026-04-28 12:24 40.61377 -72.78173 11546 ft 378 kts 187°
2026-04-28 12:25 40.58789 -72.78819 11684 ft 381 kts 200°
2026-04-28 12:25 40.56418 -72.80370 12466 ft 382 kts 214°
2026-04-28 12:25 40.54257 -72.82428 13223 ft 384 kts 223°
2026-04-28 12:25 40.52382 -72.84912 13940 ft 384 kts 235°
2026-04-28 12:26 40.51024 -72.87909 14625 ft 381 kts 252°
2026-04-28 12:26 40.50286 -72.91226 15285 ft 379 kts 260°
2026-04-28 12:26 40.49667 -72.94605 15944 ft 382 kts 261°
2026-04-28 12:26 40.49061 -72.98016 16588 ft 384 kts 261°
2026-04-28 12:27 40.48453 -73.01443 17209 ft 387 kts 262°
2026-04-28 12:27 40.47836 -73.04892 17820 ft 389 kts 261°
2026-04-28 12:27 40.47210 -73.08358 18402 ft 392 kts 261°
2026-04-28 12:27 40.46571 -73.11851 18961 ft 395 kts 261°
2026-04-28 12:28 40.45920 -73.15367 19517 ft 397 kts 261°
2026-04-28 12:28 40.45262 -73.18897 20035 ft 400 kts 261°
2026-04-28 12:28 40.44599 -73.22457 20544 ft 403 kts 261°
2026-04-28 12:28 40.43930 -73.26048 21042 ft 406 kts 261°
2026-04-28 12:29 40.42583 -73.33281 22004 ft 411 kts 261°
2026-04-28 12:29 40.41920 -73.36837 22441 ft 413 kts 261°
2026-04-28 12:29 40.41232 -73.40507 22888 ft 415 kts 261°
2026-04-28 12:30 40.40763 -73.43000 23174 ft 417 kts 261°
2026-04-28 12:30 40.39841 -73.47913 23757 ft 420 kts 261°
2026-04-28 12:30 40.39368 -73.50430 24041 ft 422 kts 261°
2026-04-28 12:30 40.38664 -73.54176 24459 ft 423 kts 261°
2026-04-28 12:31 40.37957 -73.57933 24870 ft 425 kts 261°
2026-04-28 12:31 40.37246 -73.61706 25288 ft 427 kts 261°
2026-04-28 12:31 40.36531 -73.65478 25703 ft 428 kts 261°
2026-04-28 12:31 40.35808 -73.69267 26118 ft 429 kts 261°
2026-04-28 12:32 40.35082 -73.73057 26515 ft 430 kts 261°
2026-04-28 12:32 40.34353 -73.76869 26910 ft 431 kts 261°
2026-04-28 12:32 40.33627 -73.80680 27297 ft 432 kts 261°
2026-04-28 12:32 40.32900 -73.84498 27663 ft 432 kts 262°
2026-04-28 12:33 40.32171 -73.88326 28012 ft 433 kts 262°
2026-04-28 12:33 40.31438 -73.92156 28347 ft 434 kts 262°
2026-04-28 12:33 40.30697 -73.95991 28667 ft 435 kts 262°
2026-04-28 12:33 40.29950 -73.99840 28980 ft 436 kts 262°
2026-04-28 12:34 40.29202 -74.03694 29275 ft 437 kts 262°
2026-04-28 12:34 40.28694 -74.06306 29489 ft 438 kts 262°
2026-04-28 12:34 40.28246 -74.08595 29629 ft 439 kts 262°
2026-04-28 12:35 40.27478 -74.12519 30012 ft 438 kts 262°
2026-04-28 12:35 40.26728 -74.16369 30462 ft 435 kts 262°
2026-04-28 12:35 40.25983 -74.20192 30864 ft 433 kts 262°
2026-04-28 12:35 40.25243 -74.24005 31242 ft 432 kts 262°
2026-04-28 12:36 40.24503 -74.27814 31601 ft 431 kts 262°
2026-04-28 12:36 40.23763 -74.31608 31956 ft 430 kts 262°
2026-04-28 12:36 40.23022 -74.35391 32311 ft 429 kts 263°
2026-04-28 12:36 40.22279 -74.39169 32655 ft 428 kts 263°
2026-04-28 12:37 40.21537 -74.42926 33003 ft 427 kts 263°
2026-04-28 12:37 40.20795 -74.46683 33341 ft 426 kts 263°
2026-04-28 12:37 40.20175 -74.50438 33689 ft 419 kts 269°
2026-04-28 12:37 40.19868 -74.54202 34022 ft 415 kts 271°
2026-04-28 12:38 40.19581 -74.57953 34352 ft 414 kts 271°
2026-04-28 12:38 40.19291 -74.61702 34699 ft 413 kts 271°
2026-04-28 12:38 40.18999 -74.65428 35047 ft 411 kts 271°
2026-04-28 12:38 40.18703 -74.69143 35362 ft 410 kts 271°
2026-04-28 12:39 40.18408 -74.72848 35669 ft 408 kts 271°
2026-04-28 12:39 40.18113 -74.76531 35961 ft 407 kts 271°
2026-04-28 12:39 40.17819 -74.80206 36190 ft 406 kts 271°
2026-04-28 12:40 40.17231 -74.87557 36257 ft 406 kts 270°
2026-04-28 12:40 40.16640 -74.94894 36257 ft 405 kts 270°
2026-04-28 12:41 40.16043 -75.02211 36256 ft 405 kts 270°
2026-04-28 12:41 40.15442 -75.09518 36257 ft 404 kts 270°
2026-04-28 12:42 40.14835 -75.16806 36258 ft 404 kts 269°
2026-04-28 12:42 40.14231 -75.24113 36256 ft 404 kts 269°
2026-04-28 12:43 40.13610 -75.31453 36255 ft 404 kts 269°
2026-04-28 12:43 40.12985 -75.38738 36256 ft 403 kts 269°
2026-04-28 12:44 40.12361 -75.46013 36258 ft 403 kts 269°
2026-04-28 12:44 40.11737 -75.53283 36260 ft 402 kts 269°
2026-04-28 12:45 40.11098 -75.60549 36261 ft 402 kts 268°
2026-04-28 12:45 40.10466 -75.67799 36263 ft 402 kts 269°
2026-04-28 12:46 40.09828 -75.75045 36264 ft 401 kts 268°
2026-04-28 12:46 40.08653 -75.82197 36258 ft 411 kts 254°
2026-04-28 12:47 40.05881 -75.88471 36248 ft 421 kts 243°
2026-04-28 12:47 40.02643 -75.94826 36238 ft 421 kts 244°
2026-04-28 12:48 39.99409 -76.01209 36233 ft 421 kts 244°
2026-04-28 12:48 39.96171 -76.07580 36231 ft 422 kts 244°
2026-04-28 12:49 39.92921 -76.13951 36231 ft 422 kts 244°
2026-04-28 12:49 39.89666 -76.20310 36236 ft 422 kts 243°
2026-04-28 12:50 39.86414 -76.26668 36235 ft 422 kts 243°
2026-04-28 12:50 39.83143 -76.33052 36235 ft 421 kts 243°
2026-04-28 12:51 39.79898 -76.39362 36236 ft 421 kts 243°
2026-04-28 12:51 39.76629 -76.45702 36237 ft 420 kts 243°
2026-04-28 12:52 39.73374 -76.52006 36238 ft 420 kts 243°
2026-04-28 12:52 39.70116 -76.58294 36238 ft 419 kts 243°
2026-04-28 12:53 39.66861 -76.64571 36239 ft 419 kts 242°
2026-04-28 12:53 39.63604 -76.70842 36236 ft 418 kts 242°
2026-04-28 12:54 39.60351 -76.77093 36236 ft 418 kts 242°
2026-04-28 12:54 39.57099 -76.83315 36235 ft 417 kts 242°
2026-04-28 12:55 39.53851 -76.89530 36232 ft 416 kts 242°
2026-04-28 12:55 39.50603 -76.95719 36232 ft 416 kts 239°
2026-04-28 12:56 39.46454 -77.01085 36232 ft 428 kts 226°
2026-04-28 12:56 39.41836 -77.05929 36231 ft 427 kts 226°
2026-04-28 12:57 39.37231 -77.10774 36234 ft 427 kts 226°
2026-04-28 12:57 39.32625 -77.15609 36237 ft 426 kts 226°
2026-04-28 12:58 39.27996 -77.20461 36244 ft 426 kts 225°
2026-04-28 12:58 39.23411 -77.25258 36243 ft 425 kts 226°
2026-04-28 12:59 39.18818 -77.30057 36245 ft 425 kts 225°
2026-04-28 12:59 39.14230 -77.34846 36243 ft 424 kts 225°
2026-04-28 13:00 39.09642 -77.39622 36245 ft 424 kts 225°
2026-04-28 13:00 39.05047 -77.44385 36248 ft 424 kts 225°
2026-04-28 13:01 39.00459 -77.49133 36242 ft 424 kts 225°
2026-04-28 13:01 38.95869 -77.53889 36248 ft 423 kts 225°
2026-04-28 13:02 38.91291 -77.58632 36246 ft 423 kts 225°
2026-04-28 13:02 38.86691 -77.63368 36248 ft 424 kts 225°
2026-04-28 13:03 38.82098 -77.68094 36244 ft 423 kts 225°
2026-04-28 13:03 38.77510 -77.72815 36243 ft 423 kts 225°
2026-04-28 13:04 38.73655 -77.76782 36239 ft 423 kts 225°
2026-04-28 13:04 38.69057 -77.81500 36235 ft 424 kts 225°
2026-04-28 13:05 38.64525 -77.86293 36233 ft 419 kts 231°
2026-04-28 13:05 38.60911 -77.92014 36234 ft 413 kts 238°
2026-04-28 13:06 38.57470 -77.97907 36237 ft 414 kts 238°
2026-04-28 13:06 38.54014 -78.03786 36239 ft 414 kts 238°
2026-04-28 13:07 38.50552 -78.09655 36238 ft 413 kts 238°
2026-04-28 13:07 38.47094 -78.15505 36239 ft 413 kts 238°
2026-04-28 13:08 38.43635 -78.21350 36235 ft 413 kts 238°
2026-04-28 13:08 38.40181 -78.27184 36226 ft 412 kts 238°
2026-04-28 13:09 38.36725 -78.33016 36222 ft 412 kts 238°
2026-04-28 13:09 38.33268 -78.38845 36220 ft 412 kts 238°
2026-04-28 13:10 38.29804 -78.44656 36223 ft 412 kts 237°
2026-04-28 13:10 38.26337 -78.50470 36224 ft 412 kts 237°
2026-04-28 13:11 38.22849 -78.56305 36224 ft 412 kts 237°
2026-04-28 13:11 38.19379 -78.62105 36221 ft 412 kts 237°
2026-04-28 13:12 38.15906 -78.67887 36223 ft 411 kts 237°
2026-04-28 13:12 38.12434 -78.73663 36219 ft 411 kts 237°
2026-04-28 13:13 38.08965 -78.79437 36216 ft 411 kts 237°
2026-04-28 13:13 38.05497 -78.85200 36210 ft 410 kts 237°
2026-04-28 13:14 38.02022 -78.90936 36202 ft 410 kts 237°
2026-04-28 13:14 37.98550 -78.96656 36186 ft 409 kts 237°
2026-04-28 13:15 37.95076 -79.02388 36169 ft 410 kts 236°
2026-04-28 13:15 37.91594 -79.08123 36164 ft 411 kts 236°
2026-04-28 13:16 37.88003 -79.13771 36163 ft 413 kts 233°
2026-04-28 13:16 37.84128 -79.19155 36168 ft 415 kts 231°
2026-04-28 13:17 37.80180 -79.24475 36171 ft 415 kts 231°
2026-04-28 13:17 37.76275 -79.29839 36175 ft 414 kts 232°
2026-04-28 13:18 37.72402 -79.35223 36179 ft 414 kts 232°
2026-04-28 13:18 37.68506 -79.40625 36186 ft 413 kts 232°
2026-04-28 13:19 37.64632 -79.45984 36181 ft 413 kts 231°
2026-04-28 13:19 37.60760 -79.51331 36192 ft 413 kts 231°
2026-04-28 13:20 37.56881 -79.56667 36193 ft 413 kts 231°
2026-04-28 13:20 37.53001 -79.61998 36197 ft 413 kts 231°
2026-04-28 13:21 37.49124 -79.67322 36201 ft 412 kts 231°
2026-04-28 13:21 37.45246 -79.72642 36204 ft 413 kts 231°
2026-04-28 13:22 37.41358 -79.77961 36208 ft 413 kts 231°
2026-04-28 13:22 37.37470 -79.83264 36210 ft 413 kts 231°
2026-04-28 13:23 37.33585 -79.88567 36213 ft 413 kts 231°
2026-04-28 13:23 37.29672 -79.93892 36216 ft 414 kts 231°
2026-04-28 13:24 37.25764 -79.99205 36220 ft 414 kts 231°
2026-04-28 13:24 37.21852 -80.04509 36223 ft 414 kts 231°
2026-04-28 13:25 37.17910 -80.09851 36222 ft 414 kts 231°
2026-04-28 13:25 37.13998 -80.15151 36224 ft 414 kts 231°
2026-04-28 13:26 37.10076 -80.20444 36225 ft 415 kts 231°
2026-04-28 13:26 37.06152 -80.25736 36221 ft 415 kts 230°
2026-04-28 13:27 37.02220 -80.31026 36220 ft 416 kts 230°
2026-04-28 13:27 36.98186 -80.36246 36221 ft 418 kts 229°
2026-04-28 13:28 36.94041 -80.41349 36219 ft 418 kts 228°
2026-04-28 13:28 36.89886 -80.46439 36221 ft 419 kts 228°
2026-04-28 13:29 36.85744 -80.51562 36217 ft 419 kts 228°
2026-04-28 13:29 36.81616 -80.56699 36213 ft 419 kts 228°
2026-04-28 13:30 36.77486 -80.61833 36211 ft 419 kts 228°
2026-04-28 13:30 36.73345 -80.66962 36212 ft 419 kts 228°
2026-04-28 13:31 36.67124 -80.74631 36205 ft 420 kts 228°
2026-04-28 13:31 36.62968 -80.79736 36204 ft 420 kts 228°
2026-04-28 13:32 36.58816 -80.84843 36207 ft 420 kts 228°
2026-04-28 13:32 36.54635 -80.89979 36214 ft 420 kts 228°
2026-04-28 13:33 36.50499 -80.95050 36222 ft 420 kts 228°
2026-04-28 13:33 36.46311 -81.00186 36232 ft 421 kts 228°
2026-04-28 13:34 36.42140 -81.05280 36245 ft 421 kts 228°
2026-04-28 13:34 36.37966 -81.10365 36252 ft 420 kts 228°
2026-04-28 13:35 36.33799 -81.15441 36259 ft 420 kts 228°
2026-04-28 13:35 36.29625 -81.20517 36262 ft 420 kts 228°
2026-04-28 13:36 36.25456 -81.25584 36266 ft 420 kts 228°
2026-04-28 13:36 36.21993 -81.29795 36265 ft 420 kts 227°
2026-04-28 13:37 36.17815 -81.34849 36266 ft 419 kts 227°
2026-04-28 13:37 36.13634 -81.39890 36268 ft 419 kts 227°
2026-04-28 13:38 36.09460 -81.44931 36267 ft 419 kts 227°
2026-04-28 13:38 36.05256 -81.49995 36264 ft 419 kts 227°
2026-04-28 13:39 36.01079 -81.55018 36263 ft 419 kts 227°
2026-04-28 13:39 35.96900 -81.60045 36263 ft 420 kts 227°
2026-04-28 13:40 35.92706 -81.65074 36267 ft 421 kts 227°
2026-04-28 13:40 35.88503 -81.70097 36280 ft 421 kts 227°
2026-04-28 13:41 35.84300 -81.75114 36284 ft 421 kts 227°
2026-04-28 13:41 35.80096 -81.80135 36287 ft 421 kts 227°
2026-04-28 13:42 35.75894 -81.85154 36288 ft 421 kts 227°
2026-04-28 13:42 35.71690 -81.90166 36288 ft 421 kts 227°
2026-04-28 13:43 35.67479 -81.95174 36292 ft 421 kts 227°
2026-04-28 13:43 35.63262 -82.00177 36293 ft 421 kts 227°
2026-04-28 13:44 35.59041 -82.05175 36287 ft 421 kts 227°
2026-04-28 13:44 35.54809 -82.10173 36020 ft 426 kts 227°
2026-04-28 13:45 35.52672 -82.12703 35390 ft 426 kts 227°
2026-04-28 13:45 35.50545 -82.15217 34764 ft 424 kts 227°
2026-04-28 13:45 35.48429 -82.17712 34141 ft 421 kts 227°
2026-04-28 13:46 35.47810 -82.18442 33961 ft 421 kts 227°
2026-04-28 13:46 35.45699 -82.20926 33328 ft 419 kts 227°
2026-04-28 13:46 35.43642 -82.23490 32693 ft 413 kts 236°
2026-04-28 13:46 35.42041 -82.26380 32071 ft 409 kts 237°
2026-04-28 13:47 35.40006 -82.28832 31449 ft 417 kts 217°
2026-04-28 13:47 35.37296 -82.30176 30821 ft 429 kts 195°
2026-04-28 13:47 35.34282 -82.30183 30188 ft 442 kts 173°
2026-04-28 13:47 35.31390 -82.28810 29550 ft 453 kts 151°
2026-04-28 13:48 35.29043 -82.26220 28926 ft 460 kts 130°
2026-04-28 13:48 35.27172 -82.23045 28306 ft 460 kts 127°
2026-04-28 13:48 35.25658 -82.19608 27671 ft 461 kts 108°
2026-04-28 13:48 35.25187 -82.15766 27045 ft 458 kts 86°
2026-04-28 13:49 35.25821 -82.11998 26419 ft 450 kts 66°
2026-04-28 13:49 35.26958 -82.08445 25790 ft 449 kts 70°
2026-04-28 13:49 35.27616 -82.04704 25164 ft 449 kts 79°
2026-04-28 13:49 35.28290 -82.00996 24536 ft 444 kts 66°
2026-04-28 13:50 35.29828 -81.97806 23911 ft 431 kts 43°
2026-04-28 13:50 35.32145 -81.95622 23287 ft 415 kts 20°
2026-04-28 13:50 35.34856 -81.94737 22667 ft 397 kts 356°
2026-04-28 13:50 35.37512 -81.95211 22039 ft 381 kts 335°
2026-04-28 13:51 35.39904 -81.96523 21408 ft 374 kts 326°
2026-04-28 13:51 35.42068 -81.98259 20784 ft 369 kts 317°
2026-04-28 13:51 35.43886 -82.00421 20158 ft 362 kts 305°
2026-04-28 13:51 35.45178 -82.03023 19538 ft 356 kts 290°
2026-04-28 13:52 35.45833 -82.05923 18903 ft 352 kts 276°
2026-04-28 13:52 35.45837 -82.08910 18275 ft 351 kts 263°
2026-04-28 13:52 35.45365 -82.11849 17646 ft 352 kts 258°
2026-04-28 13:52 35.44719 -82.14736 17020 ft 352 kts 255°
2026-04-28 13:53 35.43976 -82.17596 16389 ft 351 kts 254°
2026-04-28 13:53 35.43229 -82.20444 15753 ft 347 kts 258°
2026-04-28 13:53 35.42913 -82.23330 15116 ft 330 kts 271°
2026-04-28 13:53 35.43178 -82.26023 14490 ft 316 kts 283°
2026-04-28 13:54 35.43946 -82.28496 13872 ft 307 kts 296°
2026-04-28 13:54 35.45137 -82.30673 13232 ft 301 kts 308°
2026-04-28 13:54 35.46697 -82.32342 12604 ft 300 kts 328°
2026-04-28 13:54 35.48750 -82.32880 11974 ft 310 kts 358°
2026-04-28 13:55 35.50816 -82.32039 11346 ft 323 kts 28°
2026-04-28 13:55 35.52339 -82.29996 10715 ft 331 kts 60°
2026-04-28 13:55 35.52887 -82.27259 10091 ft 337 kts 90°
2026-04-28 13:55 35.52308 -82.24469 9464 ft 342 kts 120°
2026-04-28 13:56 35.50878 -82.22144 8827 ft 343 kts 137°
2026-04-28 13:56 35.49196 -82.20139 8198 ft 332 kts 137°
2026-04-28 13:56 35.47592 -82.18160 7575 ft 322 kts 137°
2026-04-28 13:56 35.45997 -82.16302 7125 ft 307 kts 140°
2026-04-28 13:57 35.44416 -82.14614 7014 ft 298 kts 143°
2026-04-28 13:57 35.42811 -82.13023 7033 ft 296 kts 145°
2026-04-28 13:57 35.41182 -82.11479 7036 ft 296 kts 146°
2026-04-28 13:57 35.39498 -82.10039 7043 ft 295 kts 157°
2026-04-28 13:58 35.37561 -82.09373 7046 ft 286 kts 180°
2026-04-28 13:58 35.35617 -82.09644 7049 ft 280 kts 201°
2026-04-28 13:58 35.33928 -82.10748 7049 ft 275 kts 221°
2026-04-28 13:58 35.32691 -82.12497 7047 ft 272 kts 242°
2026-04-28 13:59 35.32054 -82.14653 7044 ft 271 kts 261°
2026-04-28 13:59 35.32094 -82.16950 7048 ft 272 kts 281°
2026-04-28 13:59 35.32806 -82.19095 7045 ft 275 kts 301°
2026-04-28 13:59 35.34106 -82.20827 7049 ft 277 kts 316°
2026-04-28 14:00 35.35557 -82.22266 7045 ft 260 kts 319°
2026-04-28 14:00 35.36972 -82.23563 7047 ft 251 kts 320°
2026-04-28 14:00 35.38369 -82.24821 7040 ft 249 kts 320°
2026-04-28 14:00 35.39767 -82.26085 7039 ft 249 kts 320°
2026-04-28 14:01 35.40943 -82.27594 7044 ft 245 kts 297°
2026-04-28 14:01 35.41596 -82.29500 7039 ft 243 kts 290°
2026-04-28 14:01 35.42318 -82.31404 7035 ft 244 kts 294°
2026-04-28 14:01 35.43093 -82.33247 7037 ft 243 kts 295°
2026-04-28 14:02 35.43859 -82.35035 7031 ft 229 kts 295°
2026-04-28 14:02 35.44582 -82.36741 7029 ft 223 kts 295°
2026-04-28 14:02 35.45283 -82.38427 7030 ft 222 kts 294°
2026-04-28 14:02 35.45976 -82.40115 7031 ft 221 kts 294°
2026-04-28 14:03 35.46661 -82.41801 7028 ft 221 kts 294°
2026-04-28 14:03 35.47346 -82.43494 7030 ft 221 kts 294°
2026-04-28 14:03 35.48030 -82.45187 7029 ft 221 kts 294°
2026-04-28 14:03 35.48693 -82.46829 7027 ft 208 kts 294°
2026-04-28 14:04 35.49316 -82.48370 7024 ft 196 kts 293°
2026-04-28 14:04 35.49907 -82.49841 7025 ft 190 kts 293°
2026-04-28 14:04 35.50486 -82.51289 7031 ft 189 kts 293°
2026-04-28 14:04 35.51063 -82.52736 7028 ft 189 kts 293°
2026-04-28 14:05 35.51640 -82.54184 7029 ft 189 kts 293°
2026-04-28 14:05 35.52218 -82.55628 7030 ft 189 kts 293°
2026-04-28 14:05 35.52800 -82.57070 7029 ft 189 kts 296°
2026-04-28 14:05 35.53622 -82.58360 6812 ft 196 kts 315°
2026-04-28 14:06 35.54796 -82.59246 6560 ft 202 kts 335°
2026-04-28 14:06 35.56137 -82.59790 6315 ft 204 kts 339°
2026-04-28 14:06 35.57509 -82.60274 6062 ft 206 kts 340°
2026-04-28 14:06 35.58888 -82.60749 5812 ft 207 kts 340°
2026-04-28 14:07 35.60268 -82.61233 5637 ft 204 kts 340°
2026-04-28 14:07 35.61604 -82.61712 5600 ft 195 kts 340°
2026-04-28 14:07 35.62872 -82.62168 5615 ft 186 kts 340°
2026-04-28 14:07 35.64107 -82.62609 5595 ft 184 kts 340°
2026-04-28 14:08 35.65337 -82.63048 5590 ft 184 kts 340°
2026-04-28 14:08 35.66599 -82.63282 5576 ft 187 kts
2026-04-28 14:08 35.67837 -82.62764 5602 ft 190 kts 22°
2026-04-28 14:08 35.68648 -82.62292 5582 ft 191 kts 24°
2026-04-28 14:09 35.70231 -82.61309 5584 ft 191 kts 24°
2026-04-28 14:09 35.71487 -82.60978 5581 ft 183 kts 347°
2026-04-28 14:09 35.72254 -82.61345 5579 ft 178 kts 319°
2026-04-28 14:09 35.72903 -82.62555 5578 ft 169 kts 277°
2026-04-28 14:10 35.72684 -82.63921 5573 ft 166 kts 234°
2026-04-28 14:10 35.71779 -82.64786 5576 ft 168 kts 210°
2026-04-28 14:10 35.70712 -82.65384 5579 ft 169 kts 205°
2026-04-28 14:10 35.69557 -82.65688 5583 ft 173 kts 182°
2026-04-28 14:11 35.68380 -82.65371 5586 ft 176 kts 163°
2026-04-28 14:11 35.67226 -82.64848 5590 ft 176 kts 163°
2026-04-28 14:11 35.66075 -82.64326 5605 ft 176 kts 163°
2026-04-28 14:11 35.64923 -82.63806 5587 ft 177 kts 164°
2026-04-28 14:12 35.63769 -82.63284 5589 ft 177 kts 163°
2026-04-28 14:12 35.62618 -82.62765 5605 ft 176 kts 163°
2026-04-28 14:12 35.61466 -82.62245 5559 ft 177 kts 163°
2026-04-28 14:12 35.60326 -82.61730 5389 ft 173 kts 163°
2026-04-28 14:13 35.59205 -82.61224 5186 ft 170 kts 163°
2026-04-28 14:13 35.58100 -82.60726 4963 ft 168 kts 162°
2026-04-28 14:13 35.57007 -82.60234 4747 ft 166 kts 162°
2026-04-28 14:13 35.55924 -82.59746 4524 ft 165 kts 162°
2026-04-28 14:14 35.54851 -82.59263 4305 ft 164 kts 162°
2026-04-28 14:14 35.53781 -82.58780 4088 ft 159 kts 161°
2026-04-28 14:14 35.52773 -82.58326 3890 ft 149 kts 161°
2026-04-28 14:14 35.51847 -82.57909 3710 ft 139 kts 161°
2026-04-28 14:15 35.50920 -82.57495 3511 ft 140 kts 161°
2026-04-28 14:15 35.50015 -82.57087 3366 ft 139 kts 160°
2026-04-28 14:15 35.49120 -82.56668 3191 ft 136 kts 160°
2026-04-28 14:15 35.48236 -82.56285 2982 ft 136 kts 161°
2026-04-28 14:16 35.47337 -82.55894 2809 ft 137 kts 160°
2026-04-28 14:16 35.46442 -82.55480 2603 ft 138 kts 160°
2026-04-28 14:16 35.45548 -82.55074 2382 ft 136 kts 160°
2026-04-28 14:16 35.44670 -82.54679 2210 ft 135 kts 160°
2026-04-28 14:17 35.43820 -82.54299 2153 ft 111 kts 160°
2026-04-28 14:17 35.43366 -82.54094 2149 ft 42 kts 159°
2026-04-28 14:17 35.43147 -82.53991 2150 ft 19 kts 143°
2026-04-28 14:17 35.43075 -82.53900 2150 ft 11 kts 119°
2026-04-28 14:18 35.43100 -82.53840 2151 ft 8 kts
2026-04-28 14:18 35.43147 -82.53857 2151 ft 6 kts 342°
2026-04-28 14:18 35.43188 -82.53873 2151 ft 7 kts 342°
2026-04-28 14:18 35.43247 -82.53899 2151 ft 9 kts 339°
2026-04-28 14:19 35.43307 -82.53926 2150 ft 9 kts 339°
2026-04-28 14:19 35.43377 -82.53958 2150 ft 16 kts 340°
2026-04-28 14:19 35.43488 -82.54007 2150 ft 13 kts 342°
2026-04-28 14:19 35.43529 -82.53980 2150 ft 2 kts 81°
2026-04-28 14:20 35.43528 -82.53974 2150 ft 4 kts 96°
2026-04-28 14:20 35.43521 -82.53935 2151 ft 4 kts 101°
2026-04-28 14:21 35.43516 -82.53894 2151 ft 3 kts 98°
2026-04-28 14:21 35.43515 -82.53884 2151 ft 0 kts 98°